{"data":{"norad_id":53932,"intl_designator":"2022-119AY","name":"STARLINK-4772","alt_names":[],"object_type":"PAYLOAD","status":"ACTIVE","operator":null,"country":"US","launch_date":"2022-09-24","launch_site_code":"AFETR","launch_vehicle":null,"mission":null,"orbit_class":"UNKNOWN","rcs_meters":null,"size_class":null,"mass_kg":null,"dimensions":null,"purposes":["comms"],"wikipedia_slug":null,"has_3d_model":false,"image_url":null,"decayed_at":null,"tle_current":{"epoch":"2026-05-25T04:39:53.150688Z","epoch_age_seconds":51618,"freshness":"FRESH","line1":"1 53932U 22119AY  26145.19436517  .00001688  00000+0  12408-3 0  9991","line2":"2 53932  53.2146 315.7686 0001081  99.7467 260.3647 15.08851368203595","mean_motion":15.08851368,"eccentricity":0.0001081,"inclination_deg":53.2146,"raan_deg":315.7686,"arg_perigee_deg":99.7467,"mean_anomaly_deg":260.3647,"bstar":0.00012408,"rev_number":20359,"period_min":95.436835631381,"perigee_km":538.96082264023,"apogee_km":540.45646086798,"semimajor_km":6917.8456417541,"source":"CELESTRAK","updated_at":"2026-05-25T13:38:17.615516Z"}}}